FW8055 Weather Reports


time (UTC)temp
C
wind
direction
speed
KPH
gust
KPH
rain 1hr
cm
rain 24hr
cm
rain mn
cm
humidity
%
barometer
mb
20260503024544 18 338 0.0 9.7 0.00 0.00 0.00 72 1012.0
20260503023048 18 337 1.6 6.4 0.00 0.00 0.00 71 1012.0
20260503021548 18 12 1.6 4.8 0.00 0.00 0.00 70 1012.0
20260503020052 18 0 0.0 3.2 0.00 0.00 0.00 70 1012.1
20260503014609 18 35 0.0 4.8 0.00 0.00 0.00 71 1012.0
20260503013049 18 29 1.6 4.8 0.00 0.00 0.00 70 1012.1
20260503011558 18 38 1.6 4.8 0.00 0.00 0.00 71 1012.2
20260503010054 18 248 0.0 8.0 0.00 0.00 0.00 70 1012.2
20260503004557 18 28 1.6 8.0 0.00 0.00 0.00 68 1012.2
20260503003044 19 29 1.6 4.8 0.00 0.00 0.00 67 1011.8
20260503001544 19 36 1.6 12.9 0.00 0.00 0.00 67 1011.8
20260503000045 18 349 3.2 12.9 0.00 0.00 0.00 68 1011.8
20260502234545 18 89 1.6 8.0 0.00 0.00 0.00 67 1011.7
20260502233047 18 36 1.6 9.7 0.00 0.00 0.00 67 1012.1
20260502231549 18 265 1.6 6.4 0.00 0.00 0.00 67 1012.4
20260502230052 18 0 0.0 12.9 0.00 0.00 0.00 67 1012.7
20260502224603 18 0 1.6 8.0 0.00 0.00 0.00 71 1012.9
20260502223048 17 346 3.2 11.3 0.00 0.00 0.00 69 1013.2
20260502221552 17 10 3.2 11.3 0.00 0.00 0.00 68 1013.3
20260502220048 17 352 1.6 8.0 0.00 0.00 0.00 68 1013.5
20260502214544 17 346 3.2 12.9 0.00 0.00 0.00 70 1013.7
20260502213048 16 253 1.6 8.0 0.00 0.00 0.00 71 1014.1
20260502211553 16 38 3.2 9.7 0.00 0.00 0.00 71 1014.3
20260502210046 16 0 1.6 9.7 0.00 0.00 0.00 72 1014.4
20260502204547 16 360 3.2 11.3 0.00 0.00 0.00 71 1014.5
20260502203053 15 31 1.6 6.4 0.00 0.00 0.00 72 1014.6
20260502201543 15 27 3.2 11.3 0.00 0.00 0.00 74 1014.8
20260502200045 15 355 1.6 8.0 0.00 0.00 0.00 75 1015.0
20260502194629 14 80 3.2 6.4 0.00 0.00 0.00 76 1015.1
20260502193043 13 34 1.6 6.4 0.00 0.00 0.00 78 1015.4
20260502191547 13 0 1.6 11.3 0.00 0.00 0.00 79 1015.5
20260502190046 13 41 3.2 6.4 0.00 0.00 0.00 79 1015.6
20260502184552 12 0 1.6 4.8 0.00 0.00 0.00 80 1015.6
20260502183056 12 0 1.6 6.4 0.00 0.00 0.00 79 1015.8
20260502181544 12 67 0.0 4.8 0.00 0.00 0.00 80 1015.8
20260502163050 12 360 1.6 4.8 0.00 0.00 0.00 77 1016.0
20260502161550 12 40 1.6 8.0 0.00 0.00 0.00 78 1015.9
20260502151600 11 19 1.6 6.4 0.00 0.00 0.00 82 1016.2
20260502123047 10 0 0.0 0.0 0.00 0.00 0.00 81 1016.0
20260502121542 10 0 0.0 1.6 0.00 0.00 0.00 81 1016.1
20260502114556 10 0 0.0 1.6 0.00 0.00 0.00 82 1016.3
20260502113054 10 0 0.0 1.6 0.00 0.00 0.00 82 1016.3
20260502111551 10 0 0.0 0.0 0.00 0.00 0.00 83 1016.3
20260502110044 10 0 0.0 0.0 0.00 0.00 0.00 84 1016.4
20260502104549 10 0 0.0 0.0 0.00 0.00 0.00 84 1016.4
20260502103048 10 0 0.0 0.0 0.00 0.00 0.00 85 1016.4
20260502101616 10 0 0.0 0.0 0.00 0.00 0.00 84 1016.5
20260502090104 11 0 0.0 0.0 0.00 0.00 0.00 79 1016.7
20260502070058 12 5 0.0 4.8 0.00 0.00 0.00 72 1017.3
20260502064548 12 9 1.6 4.8 0.00 0.00 0.00 72 1017.4
20260502063050 12 31 0.0 3.2 0.00 0.00 0.00 72 1017.5
20260502061543 13 0 0.0 3.2 0.00 0.00 0.00 70 1017.6
20260502060044 13 0 0.0 3.2 0.00 0.00 0.00 69 1017.6
20260502054544 13 0 0.0 8.0 0.00 0.00 0.00 69 1017.3
20260502053044 13 0 1.6 4.8 0.00 0.00 0.00 68 1017.1
20260502051603 14 10 0.0 6.4 0.00 0.00 0.00 66 1017.0
20260502050042 14 23 0.0 3.2 0.00 0.00 0.00 66 1017.1
20260502044545 15 22 0.0 3.2 0.00 0.00 0.00 65 1016.9
20260502043039 15 9 0.0 4.8 0.00 0.00 0.00 63 1016.6
20260502041544 15 5 0.0 3.2 0.00 0.00 0.00 62 1016.5
20260502040053 16 22 0.0 3.2 0.00 0.00 0.00 62 1016.4
20260502034544 16 58 0.0 4.8 0.00 0.00 0.00 62 1016.1
20260502033044 17 13 1.6 6.4 0.00 0.00 0.00 60 1015.8
20260502031543 17 16 1.6 8.0 0.00 0.00 0.00 59 1015.7
20260502030042 18 78 0.0 6.4 0.00 0.00 0.00 60 1015.6